Location: Te Maire Creek
(41.1333°S, 175.9167°E)
Time: 15:53:30
(UTC+00:00)

USA 276 - Pass Details

Date: 19 May 2024
Orbit: 366 x 369 km, 50.0° (Epoch: 12 July)

Event Time Altitude Azimuth Distance (km) Brightness Sun altitude
Exits shadow 17:18:13 35° 108° (ESE) 630 3.6 -23.1°
Drops below altitude 10° 17:20:11 10° 118° (ESE) 1,383 5.6 -22.7°
Sets 17:22:15 0° 121° (ESE) 2,230 6.7 -22.3°
